Weather History for Springfield, CO

Change the Weather History Date:

Tuesday, November 20, 2012

  Actual Average Record
Temperature  
Mean Temperature 50 °F -  
Max Temperature 69 °F 55 °F 77 °F (2003)
Min Temperature 31 °F 24 °F 15 °F (2000)
Degree Days  
Heating Degree Days 15 25  
Month to date heating degree days 318 424  
Since 1 July heating degree days 765 869  
Cooling Degree Days 0 0  
Month to date cooling degree days 0 0  
Year to date cooling degree days 1422 1028  
Moisture  
Dew Point 17 °F    
Average Humidity 37    
Maximum Humidity 61    
Minimum Humidity 12    
Precipitation  
Precipitation 0.00 in 0.02 in 0.34 in (2004)
Month to date precipitation 0.00 0.42  
Year to date precipitation 8.07 16.88  
Sea Level Pressure  
Sea Level Pressure 30.14 in    
Wind  
Wind Speed 10 mph (SW)    
Max Wind Speed 23 mph    
Max Gust Speed 28 mph    
T = Trace of Precipitation, MM = Missing Value Source: NWS Daily Summary

Daily Weather History Graph

Daily Weather History Graph

Search for Another Location

Airport:

Trip Planner

Search our weather history database for the weather conditions in past years. The results will help you decide how hot, cold, wet, or windy it might be!

Date:

Astronomy

Nov. 20, 2012 Rise Set
Actual Time 6:35 AM MST 4:36 PM MST
Civil Twilight 6:07 AM MST 5:04 PM MST
Nautical Twilight 5:35 AM MST 5:36 PM MST
Astronomical Twilight 5:04 AM MST 6:07 PM MST
Moon 12:15 PM MST (11/20) No Moon Set
Length of Visible Light 10h 57m
Length of Day
10h 01m
First Quarter, 52% of the Moon is Illuminated
Nov 20
First Quarter
Nov 28
Full
Dec 6
Last Quarter
Dec 13
New
Dec 19
First Quarter

Hourly Weather History & Observations

Time (MST) Temp. Windchill Dew Point Humidity Pressure Visibility Wind Dir Wind Speed Gust Speed Precip Events Conditions
12:56 AM 32.0 °F - 19.9 °F 61% 30.17 in - Calm Calm - N/A   Unknown
1:56 AM 34.0 °F 27.2 °F 21.0 °F 59% 30.17 in - West 8.1 mph - N/A   Unknown
2:56 AM 35.1 °F 27.9 °F 21.0 °F 57% 30.15 in - West 9.2 mph - N/A   Unknown
3:56 AM 35.1 °F 31.0 °F 19.9 °F 54% 30.16 in - West 4.6 mph - N/A   Unknown
4:56 AM 35.1 °F 27.4 °F 19.9 °F 54% 30.18 in - West 10.4 mph - N/A   Unknown
5:56 AM 32.0 °F 24.8 °F 19.0 °F 59% 30.22 in - West 8.1 mph - N/A   Unknown
6:56 AM 33.1 °F - 19.0 °F 56% 30.25 in - Calm Calm - N/A   Unknown
7:56 AM 46.9 °F - 21.0 °F 36% 30.22 in - West 3.5 mph - N/A   Unknown
8:56 AM 55.9 °F - 21.0 °F 26% 30.20 in - West 3.5 mph - N/A   Unknown
9:56 AM 62.1 °F - 19.0 °F 19% 30.19 in - WSW 10.4 mph - N/A   Unknown
10:56 AM 64.9 °F - 18.0 °F 16% 30.17 in - SW 12.7 mph - N/A   Unknown
11:56 AM 66.9 °F - 18.0 °F 15% 30.14 in - SW 15.0 mph 20.7 mph N/A   Unknown
12:56 PM 69.1 °F - 17.1 °F 14% 30.11 in - SW 18.4 mph 21.9 mph N/A   Unknown
1:56 PM 69.1 °F - 15.1 °F 13% 30.08 in - SW 16.1 mph 23.0 mph N/A   Unknown
2:56 PM 66.9 °F - 15.1 °F 14% 30.09 in - SSW 20.7 mph - N/A   Unknown
3:56 PM 64.0 °F - 14.0 °F 14% 30.10 in - SSW 15.0 mph - N/A   Unknown
4:56 PM 54.0 °F - 14.0 °F 21% 30.13 in - SSW 11.5 mph - N/A   Unknown
5:56 PM 48.0 °F - 14.0 °F 26% 30.16 in - SSW 11.5 mph - N/A   Unknown
6:56 PM 46.9 °F - 15.1 °F 28% 30.16 in - SW 12.7 mph - N/A   Unknown
7:56 PM 46.9 °F - 17.1 °F 30% 30.12 in - SW 13.8 mph - N/A   Unknown
8:56 PM 42.1 °F 38.4 °F 16.0 °F 35% 30.11 in - SW 5.8 mph - N/A   Unknown
9:56 PM 39.0 °F 31.4 °F 16.0 °F 39% 30.09 in - SSW 12.7 mph - N/A   Unknown
10:56 PM 41.0 °F 35.2 °F 15.1 °F 35% 30.06 in - SW 9.2 mph - N/A   Unknown
11:56 PM 39.9 °F 35.8 °F 14.0 °F 35% 30.04 in - SW 5.8 mph - N/A   Unknown